Weather WX

World > North America > United States > North Carolina

Roanoke Rapids, North Carolina Regional Weather

Lat: 36.45N, Lon: 77.65W
Wx Zone: NCZ011
Warning FLW WEATHER ALERT - (More Info. Click Here) Warning
Feedback

Roanoke Rapids, NC Regional Weather

Expires:201907171000;;773769
ASUS42 KMHX 170925
RWRMHX
WEATHER ROUNDUP FOR EASTERN NORTH CAROLINA
NATIONAL WEATHER SERVICE NEWPORT/MOREHEAD CITY NC
500 AM EDT WED JUL 17 2019

NOTE: "FAIR" INDICATES FEW OR NO CLOUDS BELOW 12,000 FEET
WITH NO SIGNIFICANT WEATHER AND/OR OBSTRUCTIONS TO VISIBILITY


NCZ011>013-027>030-043-044-078>080-089-090>093-098-171000-
COASTAL PLAIN
  
CITY           SKY/WX    TMP DP  RH WIND       PRES   REMARKS
AHOSKIE        NOT AVBL                                               
CLINTON        FAIR      76  76 100 CALM      30.08R                  
ELIZABETHTOWN  FAIR      77  76  96 S5        30.07S                  
GOLDSBORO      FAIR      78  77  96 S5        30.05S                  
GREENVILLE     FAIR      79  77  94 S6        30.08R                  
HAVELOCK       FAIR      80  76  87 SW6       30.09S                  
KENANSVILLE    FAIR      77  77 100 CALM      30.08S FOG              
KINSTON        FAIR      78  77  95 S6        30.07S                  
NEW BERN       FAIR      78  78 100 S3        30.08S                  
RICHLANDS      FAIR      76  76 100 S3        30.08S FOG              
ROCKY MOUNT    FAIR      77  75  93 S6        30.06R                  
WASHINGTON     FAIR      79  77  94 S3        30.07S                  
WHITEVILLE     FAIR      78  76  95 CALM      30.07S                  

$$


SKY/WX - Weather  TMP - Temperature  DP - Dew Point  RH - Relative Humidity
WIND - Wind Direction/Speed PRES - Barometric Pressure VSB - Visibility
WCI - Wind Chill Index E13G22 Wind - East Wind 13 mph/Gusts of 22 mph